Regional Weather Roundup
Issued by NWS Northern Indiana

Home | Current Version | Previous Version | Text Only | Print | Product List | Glossary Off
Versions: 1 2 3 4 5 6 7 8 9 10 11 12 13 14 15 16 17 18 19 20 21 22 23 24 25 26 27 28 29 30 31 32 33 34 35 36 37 38 39 40 41 42 43 44 45 46 47 48 49 50

000
ASUS43 KIWX 200410
RWRIWX

KIWX WEATHER ROUNDUP
NATIONAL WEATHER SERVICE NORTHERN INDIANA
1200 AM EDT SAT SEP 20 2014

NOTE: "FAIR" INDICATES FEW OR NO CLOUDS BELOW 12,000 FEET WITH NO
SIGNIFICANT WEATHER AND/OR OBSTRUCTIONS TO VISIBILITY.

* THESE STATIONS ARE NOT UNDER NWS QUALITY CONTROL. THEY ALSO MAY NOT
  REPORT WEATHER SUCH AS PRECIPITATION OR FOG.

INZ001>027-200500-
NORTHERN INDIANA

CITY           SKY/WX    TMP DP  RH WIND       PRES   REMARKS
GARY*          CLEAR     65  49  55 S9        29.98F
VALPARAISO     CLEAR     58  48  69 S7        30.02F
MICHIGAN CITY* CLEAR     61  45  55 S8        30.00F
LAPORTE*       CLEAR     57  47  69 S7        30.02F
KNOX*          CLEAR     55  47  74 S7        30.02F
SOUTH BEND     CLEAR     60  47  61 S10       30.03F
GOSHEN         PTCLDY    56  48  74 S7        30.04F
MONTICELLO*    CLEAR     55  49  81 S3        30.04S
LOGANSPORT*    CLEAR     50  46  87 CALM      30.06F
ROCHESTER*     PTCLDY    61  50  67 S3        30.05F
WARSAW*        PTCLDY    52  48  87 CALM      30.05F
ANGOLA*        CLEAR     54  46  76 CALM      30.05F
FORT WAYNE     PTCLDY    52  47  83 S3        30.07F
HUNTINGTON*    PTCLDY    53  48  84 CALM      30.05F
PERU/GRISSOM   CLEAR     54  52  94 CALM      30.06S
MARION*        CLEAR     53  47  81 S3        30.07F

$$
INZ028>050-200500-
CENTRAL INDIANA

CITY           SKY/WX    TMP DP  RH WIND       PRES   REMARKS
LAFAYETTE      CLEAR     52  49  89 CALM      30.05F
KOKOMO*        CLEAR     54  46  76 S7        30.06F
MUNCIE*        PTCLDY    59  49  69 S5        30.07F
INDIANAPOLIS   PTCLDY    60  50  69 SE5       30.06F

$$
MIZ043>046-050>051-056>058-064>065-071>073-077>080-200500-
SOUTHWEST LOWER MICHIGAN

CITY           SKY/WX    TMP DP  RH WIND       PRES   REMARKS
BATTLE CREEK   MOCLDY    59  47  64 S12       30.03F
BENTON HARBOR  CLEAR     58  48  69 S8        29.98F
COLDWATER*     PTCLDY    56  49  76 S6        30.04F
HILLSDALE*     PTCLDY    53  52  98 S5        30.05F
HOLLAND        PTCLDY    62  50  64 S9        29.97F
GRAND RAPIDS   MOCLDY    62  49  62 S16       29.98F
KALAMAZOO      PTCLDY    58  48  69 S7        30.02F
STURGIS*       PTCLDY    54  46  76 S5        30.04S
THREE RIVERS*  FAIR      55  48  79 S6        30.04S

$$
OHZ001>008-015>018-024>025-200500-
NORTHWEST OHIO

CITY           SKY/WX    TMP DP  RH WIND       PRES   REMARKS
WAUSEON*       FAIR      52  50  93 CALM      30.06F
DEFIANCE       PTCLDY    53  48  83 CALM      30.06F
FINDLAY        PTCLDY    54  46  74 S7        30.07F
TOLEDO EXPRESS MOCLDY    51  49  92 CALM      30.06F
TOLEDO METCALF PTCLDY    54  49  83 S5        30.07F
LIMA           CLEAR     55  47  74 S6        30.08F

$$
&&



USA.gov is the U.S. government's official web portal to all federal, state and local government web resources and services.